KINEIS-4B

Last updated on Mon Dec 15 2025 00:02:49 GMT+0000 (Coordinated Universal Time)

1 63304U 25056E 25348.29314925 .00003072 00000+0 49462-3 0 9990 2 63304 98.0007 111.0622 0003553 129.2986 230.8537 14.72228082 39914
UTC large
Height (km)
Speed (km/s)
/
Latitude / Longitude
Inclination (degrees)
Orbital Period (minutes)
Azimuth
Elevation
Range (km)
Doppler Factor

Next 0 passes for location: London (51.5072 / 0.1276)

Sorry there are no passes over London.